Regional Weather Roundup
Issued by NWS Green Bay, WI

Home | Current Version | Previous Version | Text Only | Print | Product List | Glossary On
Versions: 1 2 3 4 5 6 7 8 9 10 11 12 13 14 15 16 17 18 19 20 21 22 23 24 25 26 27 28 29 30 31 32 33 34 35 36 37 38 39 40 41 42 43 44 45 46 47 48 49 50
000
ASUS43 KGRB 180410
RWRGRB

NORTH-CENTRAL AND NORTHEAST WISCONSIN REGIONAL WEATHER ROUNDUP
NATIONAL WEATHER SERVICE GREEN BAY WI
1100 PM CDT FRI APR 17 2015

WIZ005-009-010>012-018-019-180500-
NORTH CENTRAL WISCONSIN

CITY           SKY/WX    TMP DP  RH WIND       PRES   REMARKS
IRONWOOD       CLEAR     46  30  53 W5        29.98R
MANITOWISH WTR CLEAR     41  38  90 CALM      30.02R
ARBOR VITAE    PTCLDY    47  32  56 CALM      30.02R
EAGLE RIVER    CLEAR     43  31  62 CALM      30.01S
LAND O LAKES   CLEAR     38  33  82 CALM      30.02R
RHINELANDER    CLEAR     52  27  38 NW3       30.02R
PHILLIPS       PTCLDY    56  28  34 CALM      30.02R
ANTIGO         CLEAR     56  39  54 NW5       30.01R
TOMAHAWK       CLEAR     44  33  65 CALM      30.03R
MERRILL        CLEAR     49  38  65 CALM      30.01R
$$

WIZ013-073-180500-
NORTHEAST WISCONSIN

CITY           SKY/WX    TMP DP  RH WIND       PRES   REMARKS
IRON MOUNTAIN  CLEAR     47  38  71 S5        29.97S
MARINETTE      CLEAR     46  37  71 CALM      29.97R
OCONTO         CLEAR     44  41  89 CALM      29.97R
$$

WIZ017-030-035>037-045-180500-
CENTRAL WISCONSIN

CITY           SKY/WX    TMP DP  RH WIND       PRES   REMARKS
MEDFORD        CLEAR     54  34  47 W5        30.02S
WAUSAU         CLEAR     59  42  53 NW6       29.99R
MOSINEE        CLEAR     57  37  47 W6        30.02R
MARSHFIELD     CLEAR     56  40  55 NW7       30.02R
WISC RAPIDS    CLEAR     54  41  61 CALM      30.02R
STEVENS POINT  CLEAR     53  43  68 W3        30.01S
WAUPACA        CLEAR     55  43  62 CALM      30.00R
SHAWANO        CLEAR     58  43  57 SW3       29.98R
CLINTONVILLE   CLEAR     54  43  66 CALM      29.98S
$$

WIZ038-039-048-051-180500-
FOX VALLEY

CITY           SKY/WX    TMP DP  RH WIND       PRES   REMARKS
NWS GREEN BAY  CLEAR     55  44  66 CALM      29.98S
APPLETON       CLEAR     57  43  58 SW3       29.99S
OSHKOSH        PTCLDY    60  43  53 SW6       29.99S
FOND DU LAC    PTCLDY    56  41  57 CALM      30.00R
$$

WIZ022-050-052-180500-
EAST CENTRAL WISCONSIN

CITY           SKY/WX    TMP DP  RH WIND       PRES   REMARKS
STURGEON BAY   CLEAR     46  37  71 SW3       29.99S
MANITOWOC      CLEAR     44  42  93 CALM      29.99S
SHEBOYGAN        N/A     51  40  65 SW6       29.99S
$$

LMZ563-521-522-541>543-180500-
LAKESHORE

STATION/POSITION TIME  TEMP    WIND        PRES    VSBY  WAVE
                       AIR SEA DIR/SP/G                  HT/PER
                 (UTC) (F)     (DEG/KT/KT) (MB)    (MI)  (FT/S)
SHEBOYGAN LKSHOR 0400   55     220/  6/  7 1016.0F
KEWAUNEE LKSHORE 0400   47      CALM  /  1 1014.3S
TWO RIVERS CG    0300   42                 1015.8   3 1/2  2
NORTHPORT PIER   0400   49     170/  4/  6 1014.9S
SISTER BAY LKSHO 0400   47     150/  5/  8   N/A
CHAMBERS ISLAND  0400   44        CALM     1015.2S
MENOMINEE LKSHOR 0400   47      70/  3/  4 1015.4F
$$


USA.gov is the U.S. government's official web portal to all federal, state and local government web resources and services.